Погода в Леванто

Италия     44°10′16″N   9°36′41″E
темп.,
°C
ветер,
м/с
пор.,
м/с
влажн.,
%
обл.,
%
осадки,
мм/ч
давл.,
гПа
погр.,
м
14 мая, пт
пт1423:00+9св34906 0.0 100786
02:00+10всв339029 0.0 100869
05:00+10всв229180 0.0 100775
08:00+13вюв238292 0.2 1008347
11:00+15юв4578100 0.5 1009959
14:00+12ююз4694100 3.6 1010669
17:00+11ююв1289100 2.3 1010248
20:00+11с22857 2.3 1009125
15 мая, сб
сб1523:00+8ссв328550 0.0 101152
02:00+7св22849 0.0 101143
05:00+8св228198 0.0 101239
08:00+11ссв117395 0.0 101289
11:00+15ююз2262100 0.0 1013875
14:00+14ю4474100 0.2 1012955
17:00+14ююв456897 0.4 1011986
20:00+12ююв2494100 0.8 1011283
16 мая, вс
вс1623:00+13ю4795100 1.0 1010652
02:00+13ю2596100 1.5 1009363
05:00+12вюв2395100 0.3 1008164
08:00+13в249399 0.4 1009289
11:00+16юв4580100 0.2 1009845
14:00+15ююв3487100 0.6 1009694
17:00+15юв4580100 0.2 1008705
20:00+14вюв3592100 0.3 1008434
17 мая, пн
пн1723:00+13в3596100 0.1 1008165
02:00+12в459565 0.1 1008130
05:00+12в349482 0.0 1007123
08:00+14в348772 0.1 1008379
11:00+16вюв3476100 0.1 1009770
14:00+16юв347170 0.2 1009921
17:00+17вюв45639 0.0 1009861
20:00+14всв577653 0.1 1009411
18 мая, вт
вт1823:00+11св33840 0.0 101065
02:00+10св328092 0.0 101140
05:00+10св337671 0.0 101243
08:00+13св22680 0.1 1013148
11:00+17юз225910 0.1 1015888
14:00+17ююз32620 0.7 1016863
17:00+17ююз22610 0.1 1017666
20:00+13с2281100 0.1 101873